GFSMA_sfc_wetblb_159.txt.gz
Wetbulb
69.10 68.59 68.82 68.10 69.39 70.15 70.44 70.64 70.31 70.23 70.80 71.62 70.87 70.54 70.37 71.44 70.20 69.87 72.03 74.36 76.06 76.80 76.89 74.53 75.62 75.22 74.31 73.77 73.77 74.17 75.17 75.47 75.34 73.86 74.04 74.99 74.36 75.07 75.17 75.14 75.44 75.02 75.88
69.66 67.70 68.42 69.14 69.59 68.82 69.26 70.70 71.20 70.57 68.37 71.00 72.36 70.65 71.17 70.48 68.77 68.08 69.82 72.33 75.78 75.64 75.14 74.49 75.16 75.13 74.56 73.64 74.86 74.78 74.98 75.04 74.13 73.43 73.32 74.57 74.86 75.17 75.25 75.42 75.55 75.30 75.48
67.09 66.89 67.84 68.24 68.49 67.84 68.91 71.13 70.76 70.71 69.82 69.91 70.85 70.27 70.31 69.82 68.63 71.26 68.92 71.82 72.95 74.49 72.94 75.22 75.49 75.45 75.66 74.49 73.56 73.60 73.76 74.51 74.56 73.69 73.09 73.73 74.35 74.77 75.21 75.46 75.83 75.13 75.18
68.21 64.97 66.96 68.19 68.11 67.32 68.67 69.67 69.80 69.89 69.35 67.12 66.78 68.27 70.43 70.90 71.90 70.57 68.71 70.26 72.78 73.13 74.44 75.74 75.63 75.88 74.64 73.63 74.31 74.10 73.52 74.16 74.34 74.08 73.35 73.91 74.15 75.08 75.44 75.78 75.84 75.21 75.08
69.16 67.15 67.49 67.32 67.88 67.17 67.39 68.44 70.18 68.99 65.96 65.80 67.43 67.72 69.16 69.52 68.87 69.36 68.84 69.86 70.52 72.00 71.79 75.71 75.99 76.26 74.89 75.01 73.85 74.12 73.68 73.42 73.66 73.66 73.71 73.81 74.06 74.96 75.71 75.53 75.43 75.18 75.13
68.29 67.57 66.11 66.85 67.66 65.49 66.72 67.89 68.86 69.46 67.66 66.78 66.54 66.93 66.07 66.92 67.95 68.36 69.07 70.61 70.42 71.45 71.67 72.02 71.25 73.88 75.00 74.76 74.43 74.01 73.74 73.51 73.24 73.36 73.32 73.91 74.43 74.63 75.00 75.17 75.15 75.10 74.80
68.95 69.54 68.08 67.15 65.67 64.50 65.95 67.89 68.69 67.56 66.53 66.20 63.03 62.58 64.25 66.85 68.13 67.72 68.44 68.43 70.04 69.86 68.91 70.41 71.52 71.32 72.95 74.53 74.56 74.06 73.69 73.67 73.28 73.34 73.36 73.88 74.41 74.42 74.43 74.60 74.75 74.81 74.77
69.55 69.45 67.71 65.89 64.74 65.62 67.93 68.14 66.96 64.72 63.32 65.69 63.53 61.82 61.26 64.09 67.37 67.47 66.92 68.34 67.07 68.39 70.30 68.60 70.06 69.82 70.88 71.88 72.62 74.11 73.58 73.30 73.26 73.26 73.71 73.57 73.74 74.12 74.15 74.16 74.14 74.42 74.63
70.28 68.44 67.67 65.23 64.70 66.38 67.12 66.92 67.20 64.76 66.49 67.03 65.31 64.79 61.69 60.97 64.18 65.02 64.85 66.76 66.42 65.74 68.92 67.66 67.42 68.57 69.50 71.27 72.27 73.02 73.51 73.39 73.00 72.98 73.56 73.46 73.32 73.66 73.48 73.67 73.69 73.76 73.84
70.80 69.37 67.46 66.62 66.82 67.86 66.36 67.78 72.57 70.67 69.36 67.23 67.68 66.93 65.33 65.33 62.57 57.31 63.00 64.91 66.49 67.52 67.95 67.68 66.29 66.69 67.91 70.52 72.41 73.71 73.81 73.48 73.19 72.75 73.14 73.51 72.99 72.87 73.01 73.25 73.29 73.44 73.47
70.51 69.94 69.26 68.54 68.34 68.74 68.28 69.29 70.69 70.53 70.67 69.50 68.67 65.60 64.16 64.56 62.18 59.40 58.98 61.78 65.22 67.39 69.19 69.55 66.98 65.71 65.78 67.34 69.98 72.87 73.71 73.44 73.40 73.08 73.02 72.87 72.87 73.02 72.87 72.94 73.04 73.03 73.05
70.15 70.10 70.04 69.22 68.91 70.09 71.00 70.55 71.64 70.77 70.23 70.25 70.29 68.62 65.56 65.58 63.67 62.18 60.97 60.29 61.35 64.37 67.52 67.97 66.76 65.39 64.45 66.63 72.32 74.15 73.76 73.10 72.68 72.49 72.46 72.39 72.20 72.41 72.68 72.86 72.89 72.67 72.42
69.07 69.39 70.04 70.40 69.95 71.28 71.00 71.81 70.82 70.16 70.96 70.15 70.20 70.33 68.62 68.74 66.85 64.63 63.54 61.36 61.74 64.18 66.01 67.21 68.15 65.39 67.88 68.69 71.99 73.70 73.51 72.27 71.15 70.28 70.70 71.27 72.00 72.15 71.75 71.53 71.46 71.68 71.69
69.64 69.04 70.08 71.23 70.38 70.67 70.87 70.86 70.54 70.71 70.89 71.05 70.32 70.35 70.22 69.68 69.52 67.03 65.71 63.33 61.72 62.84 64.03 64.98 68.83 66.76 66.63 69.42 71.34 73.46 71.47 70.99 70.36 69.69 69.79 69.99 70.36 71.26 71.51 71.62 71.73 71.90 71.89
68.75 69.68 72.36 71.77 70.60 70.55 71.35 70.66 69.99 69.55 70.26 69.99 69.62 70.22 69.46 69.14 70.05 69.11 67.95 66.25 63.48 60.94 62.63 64.20 64.71 67.14 67.66 68.45 72.05 71.15 70.43 70.73 70.35 69.87 69.25 69.16 69.96 70.19 70.56 70.63 70.49 70.39 70.43
68.13 69.55 69.54 69.11 69.10 70.64 72.57 72.24 70.05 69.67 68.20 67.09 68.65 68.77 69.29 68.93 69.18 69.89 69.45 67.72 65.58 63.88 61.37 64.34 65.68 66.87 67.34 69.99 72.64 69.87 69.84 70.31 69.70 69.48 69.19 68.99 69.45 69.70 69.87 70.33 69.53 69.28 69.52
68.85 68.91 69.34 68.80 70.52 70.72 71.90 71.05 69.96 70.27 68.87 67.72 68.00 68.67 69.08 69.38 69.29 69.44 69.24 68.68 67.27 65.86 62.67 65.45 67.68 67.61 65.58 69.01 68.74 68.33 68.36 67.09 66.78 66.48 66.10 65.78 65.62 65.96 66.03 66.60 67.30 68.69 68.82
69.84 69.34 70.63 69.72 70.44 70.49 70.56 69.62 69.76 70.90 69.81 69.19 69.27 69.01 69.39 70.68 69.61 69.03 68.60 67.95 67.99 67.30 65.94 64.45 66.09 67.05 66.83 68.45 67.30 66.86 67.61 67.19 65.74 64.34 63.61 63.26 62.88 62.54 62.25 62.58 63.28 64.58 65.35
69.87 69.78 69.80 70.23 69.99 70.30 70.23 70.19 70.10 69.76 69.97 70.13 70.30 69.75 69.31 69.18 68.10 70.25 68.35 67.94 68.08 68.70 67.23 65.73 65.21 67.38 66.75 69.24 67.77 66.44 63.10 61.50 62.39 62.59 62.15 61.75 61.51 61.49 60.98 60.59 60.46 61.21 62.28
69.58 69.74 70.50 70.47 69.73 70.31 70.43 70.00 69.82 69.74 70.03 70.70 70.61 70.33 69.69 69.61 68.42 69.34 68.94 67.72 67.10 66.78 66.52 65.55 64.89 65.31 66.75 69.80 68.15 66.37 61.69 60.48 58.65 61.03 61.82 61.70 61.67 61.75 60.96 60.85 60.96 59.84 58.13
69.77 69.61 68.89 68.87 68.85 67.79 67.32 66.11 67.90 68.80 69.86 70.21 70.81 70.57 70.00 69.98 69.69 69.21 69.43 68.53 67.54 66.99 66.14 64.86 65.03 64.48 64.92 67.81 66.87 67.70 63.24 60.35 61.95 61.21 59.57 58.07 56.00 56.01 57.25 59.97 61.34 61.43 59.03
68.72 68.69 68.49 66.37 64.38 64.31 62.31 63.42 65.01 67.79 69.75 70.21 69.89 70.71 70.53 69.57 68.78 66.84 66.60 66.94 68.17 67.45 66.52 64.83 64.54 64.18 63.87 64.93 66.36 67.06 63.22 60.68 60.39 62.38 61.13 58.50 57.17 55.43 55.29 56.42 58.90 57.74 57.22
67.68 66.57 65.28 64.18 62.53 61.90 60.99 61.39 64.01 67.57 68.60 67.23 67.30 69.01 70.16 69.44 68.74 67.18 65.42 63.72 63.82 63.99 65.48 67.48 66.23 62.21 64.59 61.83 62.39 67.18 65.85 62.52 63.50 62.66 61.94 58.93 58.59 54.83 55.77 56.02 57.76 56.84 56.06
67.02 65.39 63.74 62.75 61.09 59.78 58.25 59.29 61.73 67.86 63.30 61.64 62.72 64.36 66.61 66.41 65.91 66.75 62.69 61.20 59.97 59.59 58.94 59.28 57.52 56.04 56.10 55.61 58.92 63.01 66.89 62.81 61.95 60.18 60.78 57.68 56.31 55.98 55.31 54.54 56.07 55.93 54.71
64.69 64.33 63.92 62.03 60.44 59.19 56.95 58.01 61.90 66.04 60.89 59.27 58.99 58.81 61.30 63.34 59.61 62.72 61.79 60.45 59.11 56.29 58.11 58.21 57.76 57.32 57.50 57.39 56.46 62.51 63.15 63.24 60.00 58.07 56.15 60.46 58.87 55.10 54.33 53.49 53.91 54.96 54.05
61.05 60.08 58.84 58.89 57.69 58.49 56.48 56.10 59.50 64.97 60.29 58.33 58.11 57.60 57.02 56.20 55.74 58.55 61.68 60.79 58.48 57.28 56.17 55.25 54.91 55.23 55.51 55.49 56.46 52.53 55.75 62.25 58.77 55.59 55.39 57.01 57.57 55.74 53.18 54.31 53.95 53.87 53.30

GFSMA_sfc_wetblb_162.txt.gz
Wetbulb
69.65 69.58 68.97 70.26 70.90 71.03 71.90 70.76 71.40 71.72 71.57 72.14 71.56 71.03 70.53 70.95 71.54 70.01 70.11 71.88 73.29 76.03 76.26 74.59 74.73 75.16 75.01 74.28 74.47 74.09 74.51 75.26 75.23 75.16 74.34 74.08 74.62 75.28 75.43 75.20 75.60 75.83 75.41
70.63 68.79 69.92 70.51 70.25 70.33 71.46 71.95 71.01 71.06 71.20 72.51 72.02 69.91 70.71 71.53 70.33 69.74 71.45 71.54 73.05 75.76 75.87 74.35 74.50 74.89 74.88 74.55 74.08 73.75 74.53 74.75 74.67 75.04 73.91 74.73 75.21 75.64 75.40 75.68 75.59 75.31 75.47
69.30 69.10 69.40 69.72 69.66 69.91 71.21 72.35 72.00 71.21 70.32 71.74 71.19 71.39 70.75 70.64 70.48 69.20 71.35 71.01 72.39 75.03 75.79 74.22 74.67 75.08 73.75 72.94 72.34 72.72 73.45 74.14 74.20 74.31 73.24 73.30 74.49 75.21 75.61 75.85 75.82 75.77 75.75
69.44 68.37 68.98 69.29 69.55 69.61 71.20 71.46 71.72 71.48 70.10 69.33 69.47 70.05 70.84 71.44 71.16 71.87 71.82 71.02 72.51 74.66 74.46 74.68 75.00 75.11 73.00 73.41 72.70 72.86 72.84 73.57 73.97 74.12 73.69 73.61 74.24 73.99 75.60 75.67 75.75 75.92 75.75
70.01 67.80 68.54 69.19 69.64 69.29 70.04 71.06 71.65 70.32 68.32 68.11 67.98 69.22 70.23 70.70 70.30 70.07 70.48 71.24 71.89 73.82 74.26 74.56 75.77 75.66 73.73 73.02 72.68 73.22 73.32 73.07 73.25 73.45 73.42 73.47 74.12 75.35 75.49 75.64 75.62 75.52 75.32
69.73 69.20 68.21 68.85 69.34 68.14 69.47 70.16 70.77 70.23 69.02 68.77 67.57 68.16 67.36 68.41 69.62 69.78 69.85 71.30 72.53 72.97 73.63 73.88 74.22 75.29 74.43 74.06 73.36 73.48 73.84 73.95 73.42 73.23 73.28 73.35 74.15 74.99 75.41 75.33 75.43 75.39 75.19
69.58 70.58 69.66 69.08 67.72 68.12 68.63 70.46 70.53 69.52 68.87 68.11 66.12 65.70 67.76 68.97 69.83 69.27 69.98 70.22 70.92 70.71 71.73 72.91 73.49 74.40 74.35 74.25 73.84 74.03 74.42 73.59 72.98 73.65 73.50 73.57 74.31 74.65 75.07 75.09 75.01 75.03 75.01
71.36 70.50 69.65 68.26 67.92 69.11 70.67 70.78 68.80 67.51 66.97 68.24 66.73 65.32 65.42 67.60 69.42 69.00 69.54 69.97 68.49 71.07 70.73 71.38 71.90 72.77 73.84 74.12 73.91 73.69 73.54 73.05 73.01 73.46 73.52 73.71 74.03 74.59 74.55 74.38 74.45 74.71 74.72
70.84 69.13 69.60 67.63 67.41 68.79 70.07 70.25 70.25 69.09 69.24 69.13 67.79 68.29 65.46 65.06 66.78 67.29 67.38 68.63 67.57 69.43 70.22 69.57 69.43 71.32 72.94 73.99 73.67 73.53 73.02 73.02 72.62 73.27 73.55 73.57 73.63 73.84 74.21 74.18 73.83 74.00 74.01
72.03 70.63 69.13 68.26 69.08 70.09 70.19 70.83 73.79 72.87 71.72 70.01 69.08 68.15 68.07 68.33 66.17 61.74 65.48 67.52 69.19 70.13 69.83 69.48 69.02 69.44 72.31 73.24 73.40 73.55 73.40 73.57 72.63 72.60 73.29 73.45 73.13 73.47 73.57 73.83 73.96 74.09 74.05
72.16 71.14 70.14 70.13 70.65 70.78 71.10 71.77 73.18 73.54 73.14 72.13 71.21 68.02 67.10 67.20 64.86 64.11 64.20 65.75 68.21 70.09 71.38 71.73 69.68 68.36 69.08 72.05 73.08 73.59 73.43 73.46 73.22 72.77 73.05 73.05 73.22 73.17 73.50 73.43 73.42 73.25 73.30
71.39 72.04 70.94 71.10 71.45 71.50 72.48 73.33 73.50 73.14 73.02 72.73 72.61 70.21 69.72 70.01 68.47 66.57 65.66 64.69 65.60 68.04 69.99 70.49 70.35 67.39 67.87 70.47 72.78 73.77 73.16 72.83 72.59 72.32 72.12 72.45 73.00 72.48 72.75 73.11 73.40 73.23 73.20
70.56 70.90 71.44 71.48 71.52 72.08 73.13 73.75 73.40 72.75 73.54 73.04 72.98 72.99 71.16 71.32 69.58 67.72 67.33 65.28 66.35 67.75 69.07 70.61 69.54 69.26 70.73 72.50 74.02 73.78 72.95 71.82 70.76 70.64 70.68 71.16 71.67 72.21 72.23 72.19 72.36 72.44 72.36
71.21 71.94 71.75 72.85 72.56 72.93 72.71 72.95 73.40 73.20 73.49 73.94 72.63 73.13 72.89 72.08 71.24 69.46 69.11 67.25 66.04 66.59 67.85 68.62 71.65 69.53 70.48 72.47 73.83 73.24 72.82 70.74 70.05 69.33 69.64 69.93 70.46 70.83 71.25 71.54 71.72 72.04 71.81
70.85 71.07 71.89 72.76 72.06 72.91 73.13 73.14 72.80 72.16 73.05 72.90 72.63 72.72 72.66 71.64 73.17 72.15 70.46 69.18 67.41 65.96 66.85 68.31 68.40 70.39 69.88 71.87 74.45 73.80 73.21 70.50 70.31 69.64 69.22 69.67 69.56 69.98 70.40 70.35 70.19 70.08 69.93
70.25 71.50 71.40 72.04 71.57 71.47 72.52 74.09 72.95 72.32 71.96 70.75 70.83 72.02 72.10 72.22 72.84 72.16 71.94 70.43 68.44 67.26 66.60 67.48 69.19 69.79 70.57 72.24 73.39 72.69 72.47 70.08 68.69 69.14 68.96 68.96 69.36 69.83 70.22 70.04 69.43 69.29 69.51
70.03 70.32 71.15 71.23 70.82 72.51 73.19 73.31 73.05 72.28 71.91 71.50 71.05 71.07 71.76 72.22 72.22 72.24 71.69 71.10 70.09 68.36 67.12 68.45 70.88 70.48 69.97 71.19 70.95 71.03 70.42 68.89 67.54 66.06 65.79 65.38 65.08 65.40 65.74 66.50 67.40 68.61 68.69
71.45 70.93 71.19 71.54 70.96 72.48 72.32 72.16 71.96 72.80 72.04 71.77 72.01 71.67 72.05 72.19 72.84 72.39 71.54 71.24 71.20 70.85 69.28 68.73 69.82 69.56 69.89 71.04 70.29 69.11 68.47 67.52 66.06 63.74 63.16 62.88 62.57 62.23 62.10 62.42 63.08 64.39 65.41
70.69 71.51 71.34 71.67 71.61 71.59 72.36 72.12 72.15 71.84 72.06 71.91 72.29 72.36 72.37 72.04 71.91 72.59 72.43 71.20 71.29 71.16 70.91 70.05 69.75 70.81 70.50 69.89 68.17 67.27 66.02 64.84 64.36 62.92 62.36 62.06 61.75 61.59 61.53 61.06 60.80 60.76 61.37
70.50 71.17 71.49 71.55 71.04 71.69 72.30 71.95 71.81 72.00 71.92 72.06 72.45 72.37 72.39 72.11 71.82 72.04 72.00 70.92 70.36 70.58 69.89 69.41 68.97 69.64 70.27 70.63 70.14 67.51 65.07 63.58 62.21 63.15 62.26 62.10 62.14 61.84 61.73 61.39 61.86 60.35 58.59
71.23 71.62 71.26 71.19 70.75 70.24 67.60 67.07 68.55 69.71 70.39 71.12 72.03 72.56 72.11 70.67 69.33 69.92 72.09 70.59 69.90 69.24 69.55 69.28 68.55 68.46 68.95 68.82 68.17 68.80 66.79 63.03 63.70 63.79 62.00 59.12 58.91 59.58 60.36 61.01 61.74 60.96 58.84
70.89 70.52 70.25 69.04 66.80 64.71 61.81 63.03 64.94 67.80 70.50 71.17 70.81 71.92 71.42 70.24 69.31 66.21 65.56 65.98 67.74 70.29 67.80 68.03 66.93 66.24 66.48 68.41 69.34 68.12 64.39 63.58 63.39 64.68 61.58 59.16 59.26 57.45 56.77 57.27 58.31 57.84 57.61
68.41 67.06 66.52 65.27 63.31 62.28 60.14 60.85 64.94 69.36 69.09 68.57 69.11 70.53 71.26 70.10 69.74 68.33 65.35 65.27 62.91 61.79 63.73 68.63 69.07 64.13 65.42 63.16 65.32 68.26 65.76 64.31 65.37 64.02 64.00 59.77 60.89 57.72 57.10 56.62 57.03 56.26 55.51
66.77 65.50 64.53 63.92 62.95 60.17 58.40 59.32 63.76 65.77 64.47 63.53 63.54 65.22 67.72 67.60 64.23 66.97 64.17 60.25 58.22 58.45 58.15 58.22 57.01 57.98 57.89 58.30 61.33 66.00 67.74 64.47 62.75 61.79 63.85 61.53 59.69 57.18 55.34 54.59 56.16 54.87 54.12
65.07 63.98 62.89 61.61 61.28 59.39 57.10 58.25 63.04 63.49 61.60 60.76 59.90 59.68 61.31 62.95 59.57 62.57 62.62 58.25 56.53 55.50 57.63 57.95 57.58 57.31 57.41 57.57 57.94 66.44 64.85 64.33 61.22 58.45 57.89 61.55 59.14 55.27 55.47 54.19 54.52 54.77 54.06
61.06 60.30 59.15 59.20 58.14 59.42 55.96 57.61 60.99 63.80 61.68 60.66 59.87 58.73 57.02 56.52 57.32 59.72 63.03 60.98 58.24 56.29 55.81 56.60 56.56 56.23 56.47 56.19 56.52 56.59 59.74 62.62 59.16 56.04 56.54 57.75 58.15 56.04 53.19 54.07 53.70 53.81 53.61

GFSMA_sfc_wetblb_165.txt.gz
Wetbulb
74.21 74.09 73.89 75.34 75.69 76.69 76.21 75.76 75.21 75.49 74.16 72.94 73.05 72.95 72.62 73.04 72.69 72.34 72.54 72.25 73.83 75.33 75.75 74.64 74.60 75.30 75.42 75.01 74.77 74.78 74.83 74.24 75.28 75.00 75.06 74.98 75.20 76.03 75.28 75.30 75.84 76.19 76.08
75.13 74.10 74.61 74.92 74.60 76.71 77.36 76.51 76.09 75.60 75.04 74.46 74.54 73.58 71.65 72.70 73.08 72.51 73.84 75.15 73.72 75.28 75.74 74.52 74.81 75.42 75.20 74.63 73.96 73.91 74.45 74.91 74.73 75.07 74.88 74.98 74.87 75.23 75.46 75.57 75.85 76.15 76.26
74.59 74.00 74.10 73.88 74.18 75.54 76.17 76.57 76.18 75.29 74.01 74.46 73.94 73.72 72.47 73.53 72.75 72.45 74.63 75.34 75.78 75.95 74.95 74.32 74.96 75.30 73.39 73.03 73.19 72.89 73.06 73.94 74.73 74.46 74.14 73.89 74.43 75.09 75.65 75.93 76.01 76.26 76.14
73.32 73.99 73.60 73.79 72.48 74.76 76.83 76.26 76.29 75.77 74.96 73.53 72.95 72.94 73.07 73.15 72.78 73.99 74.41 74.95 76.04 77.34 75.55 74.79 74.95 75.00 73.85 74.12 73.69 73.79 73.70 73.16 73.90 74.36 74.38 73.37 74.24 74.80 75.73 75.99 76.14 75.89 75.73
73.43 73.24 73.26 73.64 74.19 74.82 76.03 76.11 75.82 74.04 73.45 71.89 72.45 73.35 72.92 70.94 71.41 71.88 73.55 74.72 75.58 76.01 77.67 75.18 75.09 74.99 74.85 73.66 73.28 73.18 73.22 73.46 73.34 73.53 73.31 73.75 74.30 74.80 74.96 75.88 75.86 75.53 75.73
72.50 73.69 73.25 73.16 74.13 73.37 75.53 75.77 74.83 74.19 73.48 73.12 71.43 71.93 71.34 73.03 71.79 70.89 70.62 74.48 75.76 76.56 77.44 77.78 77.51 75.76 74.60 74.37 73.77 73.79 73.87 73.84 73.57 73.31 73.19 73.26 73.71 74.13 75.26 75.50 75.55 75.15 75.40
73.83 73.76 72.75 72.53 73.40 73.13 75.26 75.94 74.93 73.52 73.11 72.13 71.14 70.48 72.09 73.17 72.11 73.24 75.03 74.30 74.71 74.97 76.79 77.38 77.25 76.90 75.31 73.81 73.84 73.96 74.12 73.52 73.51 73.17 73.59 73.26 73.74 74.14 75.10 75.14 75.07 75.10 74.97
74.88 74.45 74.00 73.05 72.47 74.74 75.89 76.07 73.99 72.37 72.73 73.49 72.26 70.48 69.56 70.43 72.94 73.61 74.40 73.78 74.13 75.50 74.19 75.60 76.46 76.49 76.30 75.84 74.60 73.14 73.29 73.48 74.12 73.74 73.79 73.78 73.91 74.23 74.77 74.83 74.80 74.57 74.60
74.68 73.01 73.44 72.78 72.54 74.09 75.51 76.64 76.36 74.47 73.80 73.83 72.47 72.23 69.86 69.00 71.47 71.71 71.63 72.77 72.17 74.93 73.00 73.04 74.78 76.34 76.37 75.93 75.00 73.51 72.22 73.38 73.69 73.73 73.86 73.71 73.80 73.97 74.27 74.46 74.48 74.29 74.09
75.61 74.25 73.17 72.97 73.09 75.34 76.08 77.16 77.76 76.90 75.98 74.07 73.94 72.50 73.41 72.83 69.76 66.38 70.22 72.12 72.75 72.97 72.25 73.12 73.73 74.57 75.58 75.43 73.88 73.66 72.76 73.19 73.56 73.54 73.73 73.61 73.64 73.91 73.93 73.85 74.22 74.21 73.99
76.22 74.21 73.99 74.32 75.67 75.72 76.28 76.87 77.59 77.51 76.88 75.61 75.08 73.20 72.82 72.00 70.61 68.51 67.96 69.31 72.18 74.03 72.19 74.11 74.14 73.51 74.73 75.55 75.01 73.63 72.74 72.81 72.96 73.14 73.36 73.30 73.58 73.74 73.86 74.04 74.01 73.91 73.81
75.15 76.02 74.96 75.49 76.25 76.37 76.95 77.49 77.86 76.43 77.08 76.93 76.43 75.27 74.17 72.60 73.40 71.27 71.01 70.61 70.49 71.55 74.05 74.05 74.03 72.09 73.60 74.69 74.24 73.20 72.90 72.54 72.53 72.12 72.20 72.98 73.41 73.50 73.71 73.94 73.81 73.83 73.59
75.24 75.24 76.03 75.63 75.43 75.83 76.73 77.50 77.86 76.93 77.27 76.40 76.30 77.40 75.55 75.12 74.79 73.34 72.31 71.16 71.49 71.91 72.54 74.04 72.04 72.14 74.12 75.80 75.17 74.40 72.81 71.89 71.66 71.28 71.31 71.55 72.06 72.99 73.08 73.07 73.14 73.35 73.30
74.62 76.26 75.79 76.18 76.43 76.61 76.96 76.88 78.39 77.05 77.04 77.37 75.51 77.71 76.45 76.08 76.02 75.35 73.94 72.63 71.58 71.01 71.62 71.82 74.43 73.39 75.16 76.11 74.93 73.67 73.56 70.95 70.62 70.23 70.27 70.73 70.93 71.46 71.87 72.27 72.65 72.74 72.41
75.36 75.82 75.85 75.96 76.79 76.79 77.02 77.09 78.00 76.70 76.92 76.95 76.73 76.91 76.29 76.13 76.98 76.59 75.48 74.79 73.21 69.61 69.86 71.47 71.74 73.49 73.93 75.51 75.06 75.30 75.08 70.07 70.48 70.46 70.24 70.03 70.36 70.75 70.96 70.84 70.90 70.88 71.06
75.79 75.62 75.23 75.71 76.32 76.68 76.40 77.16 76.85 76.62 76.06 75.74 75.09 75.65 75.97 77.57 77.37 76.38 76.37 75.86 74.26 72.05 70.17 72.20 72.81 73.42 74.41 74.37 74.51 75.43 74.73 71.25 69.02 69.67 69.81 69.27 69.58 70.01 70.29 70.24 70.03 69.97 70.11
75.20 75.01 75.39 75.01 75.45 75.40 76.21 77.16 76.57 76.13 75.34 75.92 75.49 74.85 75.02 76.34 76.00 77.69 76.88 75.73 75.02 74.09 70.91 72.52 74.77 73.33 73.28 72.72 73.13 73.98 73.68 73.02 71.33 66.28 66.24 65.85 65.52 65.61 65.97 66.19 67.06 68.39 69.25
75.56 75.26 75.26 75.16 75.39 75.29 76.09 75.83 74.98 75.34 75.37 74.11 74.09 75.49 74.89 74.37 76.18 76.60 76.21 76.34 75.29 75.31 72.63 72.63 74.81 72.70 73.38 73.13 73.31 72.22 71.79 71.11 70.91 64.21 63.76 63.38 63.02 62.80 62.66 62.59 62.90 63.52 64.67
74.80 75.17 75.26 75.25 75.50 75.34 75.50 75.57 75.48 75.07 74.84 74.99 75.29 75.18 74.56 74.95 75.67 75.43 76.63 76.46 75.14 75.36 75.91 73.85 73.31 74.27 73.20 71.90 70.41 71.09 70.69 70.40 69.29 63.38 62.69 62.43 62.60 62.53 62.45 61.94 61.31 60.68 60.52
74.85 74.83 75.23 75.24 75.40 75.32 75.14 75.26 75.18 75.48 75.64 75.07 75.51 75.43 75.27 75.26 75.11 75.01 75.37 75.52 75.57 75.28 74.98 74.70 73.44 74.23 74.21 71.50 71.05 69.59 69.22 70.02 68.51 67.28 62.95 63.43 62.98 62.07 62.29 62.20 62.00 60.38 58.37
74.90 75.47 75.39 75.31 75.21 75.20 73.05 73.58 73.71 73.43 74.03 73.94 74.40 75.18 75.55 72.84 68.73 69.64 75.33 75.15 74.51 74.21 72.64 73.42 73.40 73.09 72.93 70.55 69.74 70.53 69.38 68.85 68.95 69.01 65.88 63.53 62.42 61.88 59.91 61.30 62.11 60.45 58.91
74.95 75.26 74.48 74.49 73.81 70.13 61.67 63.26 67.92 72.93 72.99 73.91 73.85 74.70 74.94 71.81 68.05 65.79 65.16 64.22 65.93 69.78 72.16 72.57 72.12 71.52 70.25 69.65 70.46 69.75 67.98 67.44 67.55 68.20 66.13 62.65 62.36 57.79 57.17 57.54 57.02 56.94 57.38
72.81 72.24 71.81 71.83 70.17 68.73 60.90 62.68 66.24 72.82 71.86 71.95 71.17 72.85 73.05 71.58 71.29 71.08 65.06 63.68 61.82 61.24 62.44 69.75 71.13 67.71 69.45 68.71 68.23 68.97 67.49 67.50 67.76 67.36 67.40 64.43 62.72 58.48 58.84 56.94 55.59 55.20 54.78
69.36 69.40 69.62 70.10 68.61 64.28 59.40 61.40 67.22 70.52 69.73 68.72 68.37 68.33 69.78 69.45 66.10 69.82 65.97 58.84 57.74 58.35 59.53 60.02 60.60 61.75 61.91 62.42 66.88 70.08 68.88 66.01 64.30 63.83 66.61 64.70 63.58 58.35 56.82 55.84 56.46 55.93 55.08
67.47 67.20 67.51 67.60 67.09 64.98 57.25 59.02 65.57 67.81 66.94 66.57 64.91 63.18 64.99 66.48 60.98 62.96 65.30 57.75 57.37 55.42 57.52 57.78 57.61 57.60 57.86 58.61 61.73 68.01 66.80 65.79 63.89 59.95 60.36 63.11 59.71 55.18 54.46 53.94 55.32 56.14 55.03
62.19 61.79 61.13 59.95 58.61 61.21 56.25 56.37 63.72 66.75 64.30 62.21 60.58 59.93 57.35 58.39 57.75 59.87 62.42 61.51 56.64 58.97 59.36 59.07 61.75 59.67 59.87 59.65 59.32 61.55 63.09 64.40 60.68 57.85 57.94 58.43 57.39 56.08 52.14 53.90 54.25 55.02 55.32

GFSMA_sfc_wetblb_168.txt.gz
Wetbulb
76.08 76.61 77.84 78.58 78.57 79.54 78.77 79.17 78.10 78.08 77.43 76.24 75.21 75.47 74.48 74.34 74.18 75.13 75.53 74.13 75.28 76.24 75.48 74.97 75.10 75.44 75.51 75.59 75.00 74.67 74.54 74.06 74.27 75.07 75.07 75.24 75.61 75.87 75.53 75.53 76.09 76.37 76.45
77.69 76.27 77.77 78.00 78.37 79.02 78.94 79.47 78.46 78.21 77.45 77.08 76.77 75.27 74.91 73.42 75.14 75.36 76.50 76.39 75.43 76.17 75.10 74.90 75.08 75.44 74.56 73.58 73.25 73.11 73.45 74.23 74.54 74.28 74.94 75.06 75.35 75.03 75.72 76.01 76.07 76.25 76.36
77.16 77.42 77.31 77.35 77.51 78.24 79.31 79.43 79.42 79.15 77.84 77.27 75.01 75.23 75.98 74.65 75.05 76.19 77.62 77.23 76.68 75.77 74.96 74.84 75.14 74.52 73.41 73.46 73.25 73.38 73.30 73.51 74.22 74.43 74.15 74.78 74.73 75.12 75.39 76.20 76.16 76.08 75.83
76.86 77.26 76.93 77.02 76.48 78.71 79.36 79.10 78.71 78.07 77.59 76.61 75.60 75.52 74.91 75.71 74.28 76.80 77.00 77.42 77.78 77.58 75.73 75.10 74.95 74.72 74.68 74.13 74.15 74.01 73.94 73.67 73.38 73.96 74.09 74.21 73.88 74.37 75.47 75.93 76.24 75.76 75.91
75.43 76.90 76.50 76.36 77.97 78.58 78.86 78.26 77.83 76.67 75.64 75.56 75.08 75.18 75.12 75.73 73.28 74.16 75.35 77.35 77.66 76.70 78.24 74.83 74.75 74.40 74.93 74.45 74.00 73.79 74.06 74.12 73.90 73.34 73.38 73.50 74.18 74.56 75.38 75.73 76.09 75.61 75.61
74.82 76.19 75.64 76.08 76.53 76.72 78.40 78.59 77.66 76.62 75.41 74.88 73.80 74.14 74.77 76.80 76.17 74.93 74.97 76.96 77.48 78.15 77.87 78.22 77.40 75.55 74.15 74.37 74.19 74.40 73.92 73.61 74.08 73.57 73.35 73.23 73.59 73.94 74.37 75.74 75.46 75.13 75.48
76.94 76.30 75.23 75.18 75.98 75.20 77.97 78.85 77.78 76.54 76.64 76.70 75.37 74.05 74.50 75.26 75.01 76.76 77.89 78.02 76.66 76.98 77.87 78.67 77.28 76.80 75.35 73.21 73.75 74.01 73.56 74.43 73.95 73.85 73.68 73.08 73.58 73.73 74.33 75.01 75.20 75.43 75.26
77.30 77.17 76.28 76.51 76.03 76.60 78.21 78.58 78.17 76.22 76.37 77.31 73.79 73.47 71.73 72.25 74.08 75.77 76.14 76.35 76.88 77.54 77.15 77.34 77.32 77.99 76.93 75.87 74.16 72.90 72.90 74.06 74.43 74.04 73.88 73.76 73.89 74.14 74.61 75.12 75.09 75.15 74.88
77.43 77.22 76.20 76.19 75.52 76.69 77.25 78.64 78.12 77.14 75.49 76.94 75.65 74.19 71.73 68.19 72.01 73.77 73.32 75.30 75.06 76.19 75.90 75.68 76.34 77.45 77.69 76.35 75.15 73.80 72.54 73.51 74.06 74.20 73.93 73.94 74.16 74.21 74.46 74.67 74.92 74.92 74.80
77.55 76.92 75.93 75.26 75.04 77.90 79.27 78.13 78.11 77.97 78.08 74.48 76.99 75.79 75.45 74.42 69.81 68.57 72.57 73.90 75.00 74.22 75.59 75.35 75.63 76.34 77.59 76.68 73.69 73.58 73.06 73.11 73.53 73.64 73.82 73.89 74.09 74.19 74.36 74.46 74.55 74.72 74.52
78.19 76.89 76.93 76.77 76.74 77.32 78.25 78.20 77.84 78.26 77.93 75.80 74.95 75.85 76.32 75.74 74.61 71.02 68.89 70.96 74.78 75.51 74.88 74.41 76.26 75.57 76.34 76.90 76.27 73.58 72.92 72.55 72.74 73.24 73.22 73.82 73.86 74.01 74.11 74.08 74.01 74.04 73.99
76.53 77.87 77.43 77.77 78.10 78.41 78.51 78.22 78.08 77.75 77.80 77.05 76.02 76.31 75.05 74.13 73.91 72.23 70.33 71.24 72.67 73.82 75.53 76.50 75.81 75.42 76.20 76.35 74.16 73.24 72.89 72.32 71.85 71.85 72.52 73.71 73.88 73.75 74.21 74.47 74.25 74.33 74.13
74.57 76.16 78.15 78.01 77.00 78.03 79.03 78.12 77.57 77.38 77.97 77.97 77.45 75.70 75.90 75.72 76.46 75.48 73.79 72.00 71.38 74.08 74.19 76.35 74.71 74.01 75.17 76.34 75.82 75.23 72.76 72.20 71.71 71.50 71.65 72.14 73.01 73.66 73.99 74.13 74.19 74.04 73.89
74.74 77.18 77.23 77.36 77.93 78.06 77.96 77.10 76.17 75.72 77.10 77.27 76.33 76.74 75.38 76.39 76.10 76.72 75.73 72.80 70.73 71.51 72.87 73.23 74.70 74.79 75.77 78.41 75.71 74.04 73.91 71.37 71.36 70.98 71.02 71.29 71.56 72.09 72.30 72.59 72.70 72.76 73.19
75.97 76.75 77.39 77.63 77.97 77.36 77.90 77.12 75.44 75.76 76.38 75.96 76.13 76.94 75.47 76.76 77.04 76.19 75.95 77.16 72.79 68.70 71.78 73.16 73.57 75.35 76.36 76.60 75.00 75.51 75.76 70.07 71.24 71.43 70.73 70.74 71.11 71.09 70.91 70.94 71.63 72.02 72.13
76.34 77.02 77.54 77.46 76.63 76.44 77.42 77.29 76.03 76.24 75.96 75.29 75.12 76.84 76.34 76.80 75.51 75.42 74.97 75.71 74.66 72.40 69.64 74.10 74.34 75.34 76.50 76.25 74.89 76.16 74.58 72.07 69.56 69.98 70.17 69.41 70.03 70.45 70.70 70.71 70.67 70.70 70.65
76.10 76.21 77.58 77.04 76.99 75.79 76.48 76.58 76.44 75.84 75.31 75.23 75.59 75.83 75.58 76.36 74.85 75.44 75.53 74.94 74.64 73.67 70.23 73.59 76.28 75.71 75.84 76.00 75.14 75.30 74.60 75.27 72.07 66.80 66.40 65.86 65.46 65.53 65.88 66.22 66.87 67.99 69.49
76.30 77.23 77.24 76.86 77.05 76.86 77.03 75.88 75.18 75.36 74.61 74.58 75.24 75.42 75.02 74.93 76.09 76.05 74.25 75.36 75.15 74.86 72.18 73.05 75.76 75.60 76.15 74.84 74.42 74.56 74.61 74.64 74.66 64.97 64.26 63.70 63.52 63.34 63.21 63.07 63.07 63.38 64.18
77.07 76.84 76.83 76.37 75.44 75.65 76.11 75.70 75.83 75.97 75.68 74.94 74.99 75.11 75.14 75.46 75.87 74.92 75.24 74.47 75.27 74.83 75.24 73.07 74.36 75.91 76.45 74.10 72.41 74.01 73.88 74.12 72.22 64.11 63.34 63.47 63.27 63.24 62.54 61.94 60.93 60.38 60.74
76.53 76.46 77.12 75.93 75.50 75.42 75.89 75.94 76.08 75.78 75.64 75.25 76.03 76.25 76.13 75.46 75.13 75.73 74.92 75.03 74.88 76.54 73.82 73.33 72.83 73.76 75.54 74.40 73.69 72.42 71.42 72.82 71.29 69.76 64.59 65.84 64.17 62.97 62.61 61.30 61.36 60.20 58.34
76.61 76.71 76.65 76.08 75.84 75.63 75.53 76.31 76.27 75.86 76.17 75.64 75.85 76.40 76.11 73.72 69.17 70.56 75.98 75.93 75.20 74.58 75.83 73.17 71.43 72.83 72.35 72.89 70.73 72.13 71.96 70.76 70.75 71.64 68.11 65.19 63.10 62.29 58.61 58.49 60.21 59.96 58.75
76.32 76.45 76.17 75.87 75.34 74.64 63.49 65.04 69.98 75.15 75.95 75.73 75.40 75.96 76.09 71.44 68.22 65.03 65.13 64.66 67.79 73.10 72.49 73.69 71.11 71.98 72.70 72.61 71.88 70.91 69.48 68.03 66.80 70.01 67.11 65.51 65.51 60.61 60.39 59.88 57.78 57.67 57.42
75.44 75.54 75.91 75.90 75.62 75.47 62.28 63.38 66.77 74.76 75.11 75.27 74.06 74.81 74.55 73.11 72.62 71.22 64.56 63.24 61.76 61.76 63.29 69.21 70.70 68.87 71.48 72.27 73.37 71.56 70.32 69.96 67.60 68.58 69.08 63.47 63.82 59.83 59.74 58.35 56.37 56.55 56.09
73.91 73.83 74.08 74.28 72.99 68.92 60.05 62.01 67.74 74.25 73.56 72.88 72.15 71.90 72.34 72.10 71.70 72.12 70.96 67.62 66.26 65.59 65.48 64.38 61.84 62.76 61.38 63.25 70.39 71.08 71.22 68.61 66.38 65.03 65.79 62.51 61.38 58.45 57.67 57.65 56.48 55.88 55.04
70.23 69.78 71.24 71.36 70.34 67.82 58.16 59.95 65.91 72.96 72.02 70.67 68.98 67.79 71.65 72.00 61.20 63.81 69.13 65.43 64.57 61.64 58.12 58.01 58.05 58.42 59.40 60.78 63.69 69.49 68.44 66.81 63.89 61.24 61.16 62.88 57.22 54.13 53.61 54.39 56.87 56.05 54.78
65.96 65.35 64.80 65.20 61.34 65.31 57.34 56.99 64.57 70.33 69.91 68.02 66.72 64.06 57.65 60.86 59.37 60.17 65.76 63.17 57.86 59.23 60.23 60.64 64.69 62.76 61.61 61.15 60.41 68.11 68.52 66.39 62.88 58.80 58.31 58.70 55.79 55.03 51.79 54.43 55.50 56.75 56.41

GFSMA_sfc_wetblb_171.txt.gz
Wetbulb
75.68 75.93 77.78 77.09 77.25 77.17 77.25 77.46 77.62 78.39 77.46 76.46 76.63 75.67 74.35 74.50 74.61 74.93 75.08 75.65 76.16 77.00 75.56 75.65 75.62 75.46 75.05 74.66 74.09 73.89 74.07 74.08 73.60 74.06 75.02 75.36 75.80 76.02 75.78 75.68 75.76 76.02 76.20
76.66 76.18 77.29 76.76 77.48 76.66 77.28 78.06 78.28 77.72 77.31 76.66 75.91 75.11 74.25 74.92 75.81 76.26 76.33 75.70 76.53 77.12 75.87 75.70 75.85 74.35 73.65 73.40 73.04 72.93 72.94 73.29 74.00 74.39 74.29 75.65 75.45 75.46 75.72 75.86 75.92 75.95 76.26
77.88 77.84 76.77 76.94 76.81 78.15 78.71 78.49 78.83 78.37 76.94 76.30 75.16 75.53 75.58 75.72 76.29 77.04 76.74 76.66 76.08 77.04 76.57 75.83 75.50 74.04 74.04 73.51 73.51 72.85 72.60 72.61 73.20 73.91 74.24 75.71 75.06 75.09 75.15 76.33 76.08 75.91 76.14
77.54 78.03 75.80 76.51 77.19 77.81 77.37 76.83 77.23 76.26 75.89 75.53 74.98 75.95 75.12 75.92 74.90 76.63 76.11 76.62 76.26 74.63 76.86 76.13 75.65 74.42 74.24 74.15 73.90 74.04 74.61 74.30 73.35 73.31 74.00 74.24 74.50 74.46 75.75 75.89 76.24 75.82 75.77
76.47 77.54 75.96 76.32 77.89 77.68 76.78 76.17 76.52 76.32 75.39 75.52 74.46 74.64 74.94 74.93 74.40 74.27 75.68 76.44 76.15 76.28 75.49 76.30 75.88 75.08 75.02 74.29 74.10 74.46 73.82 73.73 74.06 73.17 73.46 74.05 74.10 74.24 74.81 76.02 76.24 75.97 75.62
76.24 76.33 75.51 76.70 76.99 76.12 76.25 77.16 77.51 76.17 75.04 75.09 73.78 73.97 74.14 75.94 75.95 75.28 75.28 76.20 76.34 75.75 76.10 76.21 75.67 75.02 75.26 74.35 74.04 74.29 73.70 74.22 73.68 73.50 73.05 73.51 73.73 73.92 74.51 75.21 75.86 76.04 75.66
77.06 77.89 75.78 76.15 75.87 75.54 77.63 78.05 77.04 76.37 75.06 76.81 74.89 73.36 73.94 75.09 74.82 75.54 76.28 76.28 75.80 75.13 75.42 76.02 75.27 75.25 74.85 74.92 74.05 73.63 73.47 74.74 74.42 73.84 73.75 73.42 73.44 74.09 74.63 75.34 75.91 75.94 75.66
77.61 77.33 77.22 76.16 77.09 75.72 77.41 77.92 77.50 75.01 75.26 76.18 73.56 73.50 66.90 68.45 74.07 74.13 75.11 74.90 75.71 75.78 75.47 76.02 75.94 76.24 75.99 75.35 74.27 73.17 73.37 74.45 74.64 74.21 74.01 74.04 73.86 74.03 74.58 75.19 75.53 75.58 75.46
77.35 77.76 76.77 77.32 76.81 77.43 76.14 77.03 77.79 76.62 73.95 75.24 76.52 73.18 69.45 68.43 68.22 72.89 73.72 74.24 74.33 74.47 74.33 75.38 75.71 76.39 75.71 75.77 75.37 73.46 73.17 74.08 74.30 74.48 74.18 74.17 74.19 74.37 74.62 75.16 75.47 75.20 75.00
77.39 77.20 76.63 76.59 76.94 77.18 78.05 77.36 77.10 77.53 76.55 73.13 75.12 75.06 75.43 74.08 72.75 66.56 72.54 73.65 74.53 74.46 75.08 76.25 75.07 76.37 76.32 76.50 74.26 73.75 73.20 73.44 74.01 74.04 74.45 74.09 74.27 74.42 74.52 74.76 75.16 75.10 74.95
77.65 76.99 77.28 76.65 76.30 78.61 77.76 78.02 77.54 77.52 76.73 74.82 73.63 73.57 75.91 74.02 74.14 70.40 68.07 70.75 74.56 74.30 74.83 74.22 75.13 75.38 76.02 75.51 76.24 73.37 72.99 72.70 73.10 73.39 74.13 74.13 74.21 74.21 74.48 74.31 74.29 74.39 74.37
75.71 77.65 77.37 77.70 77.83 78.27 77.06 77.38 78.05 77.50 77.80 77.19 76.01 74.53 73.02 73.56 68.27 72.74 69.26 70.93 70.82 73.07 74.34 76.32 75.30 75.16 75.32 75.78 73.91 73.69 72.85 72.15 71.76 72.21 73.02 74.11 73.96 74.24 74.43 74.32 74.23 74.36 74.36
74.46 77.34 78.18 77.75 77.40 77.89 77.78 77.98 77.72 77.75 77.12 77.74 77.31 74.87 73.93 73.25 74.34 70.99 72.47 70.59 70.10 72.06 72.13 74.57 74.07 75.31 75.24 75.66 75.42 74.97 72.85 72.05 71.51 71.46 71.63 72.81 73.70 74.27 74.06 74.32 74.59 74.49 74.47
74.05 78.99 77.41 77.69 77.64 77.85 77.90 77.89 76.54 76.02 77.48 75.99 76.56 76.96 74.61 75.71 73.83 74.64 72.83 71.34 68.63 68.41 72.71 73.78 74.61 75.81 75.16 75.78 75.18 75.02 72.77 71.93 71.37 71.31 71.26 71.25 72.07 72.89 73.24 73.74 73.76 73.77 73.87
73.25 77.50 76.90 76.86 77.37 77.97 78.04 78.05 76.10 76.14 76.52 76.37 76.52 76.37 75.62 74.48 75.52 74.83 74.91 74.29 70.36 67.00 69.26 71.14 72.80 75.65 76.08 76.06 74.65 76.04 75.40 70.47 71.76 71.21 71.21 71.09 70.94 70.92 71.19 71.43 71.83 72.10 72.27
77.09 75.69 76.78 76.98 76.71 77.36 77.53 78.04 77.42 77.46 76.80 75.62 75.55 76.28 76.44 75.76 74.79 74.67 75.54 72.89 73.90 72.18 69.46 69.86 73.46 75.67 76.15 76.13 74.10 76.76 75.06 71.85 71.03 70.79 69.68 69.37 69.62 70.11 70.36 70.39 70.10 70.04 69.79
76.78 76.75 76.94 76.49 76.46 76.74 77.27 77.20 78.18 76.66 75.85 76.42 76.11 75.79 75.99 77.49 74.77 75.29 73.93 74.30 73.77 73.76 70.14 72.36 75.12 76.44 76.38 76.36 75.28 76.75 74.60 75.44 71.17 67.26 66.63 65.87 65.63 65.85 66.12 66.48 66.90 67.79 68.82
77.09 76.88 76.82 76.68 77.32 76.23 77.19 76.82 76.25 74.73 75.78 74.88 76.04 76.75 76.21 74.68 76.47 78.00 74.13 76.63 76.08 75.86 73.15 73.32 75.07 75.92 75.92 75.84 75.89 75.42 75.61 74.43 70.35 65.38 64.38 64.18 63.97 63.68 63.15 62.95 62.97 63.22 64.13
76.60 76.56 77.15 76.97 76.41 76.46 76.46 76.43 76.43 76.18 76.49 75.20 75.54 75.45 75.10 75.70 75.21 75.81 76.66 76.58 74.16 74.97 75.13 72.61 74.33 76.44 76.61 75.27 74.74 75.86 75.50 74.99 69.67 64.63 63.90 63.93 63.26 62.35 62.04 61.48 60.61 60.34 61.06
77.70 77.02 77.88 76.97 76.68 76.43 76.27 76.11 76.71 76.26 75.95 75.62 75.79 75.97 76.54 76.40 76.63 75.67 76.08 76.08 76.38 76.34 75.19 73.73 72.19 71.70 75.91 74.99 74.26 74.94 74.26 76.69 67.04 68.47 65.39 64.54 62.62 60.90 61.08 61.53 61.44 59.92 58.24
77.73 77.18 76.85 76.78 76.37 76.11 75.33 77.24 76.11 75.95 75.97 75.48 75.86 76.08 76.32 72.65 68.60 70.29 75.15 77.44 75.22 74.28 74.92 71.15 69.92 70.51 74.15 72.47 71.88 73.56 73.45 74.00 74.00 70.10 66.63 65.68 63.20 60.49 60.37 61.18 62.10 60.81 58.63
78.03 78.14 76.29 76.40 76.40 74.66 66.19 67.80 70.84 75.14 75.71 75.78 75.38 75.98 76.18 71.14 67.83 65.02 65.16 64.28 66.99 74.36 73.46 73.16 71.78 69.22 70.13 69.87 70.68 70.97 70.50 69.14 66.28 69.13 64.15 64.77 65.13 60.13 58.68 58.79 58.27 58.18 57.63
76.92 76.48 77.00 76.11 75.76 75.92 64.86 65.98 66.37 73.60 75.03 75.64 75.21 75.51 74.86 73.39 72.72 72.66 64.79 63.50 62.78 63.18 64.63 71.98 71.41 68.20 68.72 67.19 71.65 71.18 71.10 72.07 67.98 69.02 66.08 60.89 60.86 57.53 58.15 57.67 56.71 56.14 55.86
76.88 77.60 76.26 75.98 76.09 68.02 62.21 63.18 65.70 74.15 75.32 74.10 73.64 73.17 74.42 73.56 70.64 72.45 72.47 71.02 68.64 66.16 66.01 69.79 68.43 66.32 65.80 65.40 69.75 71.96 71.85 68.81 67.94 65.89 66.30 58.62 58.92 56.48 57.00 56.63 56.12 55.39 54.95
73.29 73.77 73.81 74.14 73.46 68.25 59.05 60.28 66.66 74.47 73.59 71.71 70.87 68.14 67.43 72.45 62.78 64.24 70.95 68.94 66.04 62.71 59.37 59.26 59.22 60.13 60.04 60.40 62.54 69.59 69.39 67.43 64.08 61.60 60.63 57.66 56.50 53.02 54.06 55.63 56.30 55.51 54.39
66.80 65.92 64.71 65.50 63.38 65.98 57.98 58.86 65.08 74.43 72.65 69.80 69.81 68.72 58.27 61.27 60.02 60.66 68.05 67.28 61.81 59.84 60.25 61.57 58.55 58.79 59.24 60.36 61.72 64.34 64.70 66.28 62.85 60.70 59.44 57.21 53.97 53.10 50.69 54.90 56.30 57.46 55.81

GFSMA_sfc_wetblb_174.txt.gz
Wetbulb
77.22 76.75 78.76 75.10 74.60 71.70 73.74 72.23 73.27 76.72 75.32 75.64 75.59 74.68 71.77 73.58 74.25 73.22 73.70 76.99 77.28 77.11 77.06 75.99 75.86 75.15 75.27 74.49 73.86 73.91 74.19 73.76 74.17 74.11 75.50 75.75 75.63 75.81 75.73 76.13 76.24 76.32 76.22
77.02 78.17 78.15 77.83 77.03 71.85 74.55 78.91 78.71 78.22 77.56 75.88 74.97 75.37 74.25 74.51 76.21 75.19 74.47 75.37 77.48 77.43 77.18 76.44 75.59 74.50 74.01 73.53 73.45 73.18 72.85 72.94 73.97 74.55 74.36 76.09 76.23 75.89 76.04 76.04 76.07 76.07 76.15
79.03 78.95 78.51 77.72 77.57 78.89 79.25 77.65 78.59 78.68 77.22 75.98 75.45 75.43 75.31 75.60 75.80 76.67 74.19 74.61 75.94 76.67 77.29 77.03 75.86 75.18 74.64 73.62 73.40 74.12 73.84 72.66 73.33 74.07 74.30 75.29 75.67 76.07 76.19 76.07 76.25 76.08 75.85
78.65 79.35 77.67 77.93 78.26 78.38 77.48 77.54 77.71 73.48 75.69 75.28 75.23 75.80 75.19 75.99 75.41 76.50 76.13 73.79 74.67 74.22 75.84 77.18 76.66 75.95 74.99 74.25 74.02 74.01 74.13 73.47 73.42 73.84 74.11 74.47 76.03 75.79 75.90 75.70 76.20 75.53 75.53
78.61 78.40 76.95 78.70 78.64 76.89 77.10 73.33 73.72 76.40 75.84 75.38 74.57 73.66 74.00 75.22 74.10 73.59 74.17 74.69 75.40 73.75 73.50 76.81 76.48 76.12 75.30 74.85 74.63 74.45 73.59 74.37 73.73 73.15 74.12 74.53 75.34 75.24 75.57 75.73 75.93 75.75 75.50
77.80 77.50 76.48 78.52 77.83 76.20 76.10 78.00 78.27 76.83 76.30 75.34 74.14 71.10 69.29 70.83 74.56 74.11 73.57 74.19 74.88 74.19 74.93 75.08 74.88 74.64 75.91 74.58 74.57 73.80 74.25 74.18 73.72 73.39 73.20 74.14 74.63 74.97 75.22 75.38 75.92 76.17 75.77
77.71 78.92 76.75 78.20 77.36 76.49 74.18 76.88 77.75 77.48 75.63 76.80 71.07 64.08 65.43 68.82 68.90 73.70 75.52 71.85 74.97 74.81 75.19 75.37 74.77 74.15 74.12 75.38 74.80 73.95 74.61 74.36 74.31 73.93 73.51 73.20 74.23 74.64 75.00 75.20 75.79 75.79 75.66
79.18 78.03 78.65 77.64 79.31 76.94 77.69 77.86 77.79 73.10 64.06 71.94 65.29 65.93 65.16 63.26 65.09 67.37 74.88 75.01 74.81 73.86 74.33 74.74 75.80 75.44 73.37 73.88 73.25 73.96 74.49 74.51 74.12 73.98 73.80 73.97 73.94 74.60 75.12 75.34 75.73 75.80 75.46
78.14 79.32 78.83 78.79 77.77 77.00 69.70 72.25 76.52 73.08 64.09 69.26 76.11 71.32 65.14 61.05 64.76 69.48 73.66 73.43 73.93 72.65 73.62 74.10 74.91 75.07 74.97 73.99 73.05 73.09 74.10 74.65 74.46 74.28 74.24 74.18 74.23 74.73 74.90 75.23 75.27 75.19 75.12
78.53 78.07 78.87 79.10 79.17 78.04 71.16 73.18 77.22 76.28 75.38 70.69 70.08 72.68 75.64 70.82 66.93 65.28 70.74 73.18 74.19 74.09 74.44 73.65 74.06 74.94 73.69 73.76 73.30 73.47 73.63 73.80 73.95 74.45 74.34 74.17 74.35 74.53 74.75 75.05 75.38 75.20 74.88
79.48 78.90 78.30 78.31 77.59 69.91 67.56 75.63 77.61 76.63 76.79 74.79 73.21 73.69 71.95 69.39 64.95 67.39 67.06 70.39 71.46 74.48 73.97 73.87 74.49 74.60 74.40 74.19 72.37 73.10 73.31 73.33 73.43 73.75 74.55 74.27 74.22 74.39 74.47 74.58 74.58 74.72 74.82
76.79 79.73 78.10 79.13 77.77 70.49 66.17 75.36 78.79 78.50 76.77 77.74 76.89 75.46 72.69 69.05 66.62 69.36 69.71 70.32 70.71 72.93 73.51 73.70 74.53 73.89 74.87 73.71 73.29 73.58 72.93 72.51 72.45 72.78 73.30 73.91 74.35 74.53 74.55 74.51 74.44 74.50 74.45
73.64 77.16 78.07 78.63 78.58 77.64 75.90 79.13 78.77 77.88 78.08 76.70 77.76 75.99 74.67 72.00 71.45 66.72 68.03 69.70 68.99 69.27 72.18 73.95 73.40 74.89 75.17 73.19 72.73 73.01 72.82 72.17 71.79 71.31 71.55 72.59 73.47 73.94 74.60 74.24 74.41 74.48 74.48
70.66 74.40 77.88 78.48 78.20 76.84 77.61 79.21 77.31 77.47 74.74 76.83 78.13 77.50 75.71 72.59 73.36 70.86 71.77 71.53 69.00 68.63 71.62 72.52 74.35 73.40 74.27 74.05 73.95 73.13 71.43 71.55 71.40 71.09 70.85 70.88 71.68 72.36 73.26 73.74 73.90 74.00 73.78
73.04 73.49 72.94 77.50 78.88 78.06 76.71 77.85 76.85 76.63 77.74 77.34 77.24 77.35 75.66 71.82 69.36 73.94 76.04 73.68 70.74 67.30 66.00 69.27 69.94 74.26 73.98 73.81 74.23 73.70 71.88 70.79 71.45 71.17 71.15 71.39 71.19 71.12 71.39 71.93 72.35 72.65 72.90
71.78 69.88 72.20 78.00 77.85 77.42 77.33 78.94 77.56 77.32 77.18 76.98 76.04 73.80 75.35 75.80 73.70 75.49 72.18 74.55 73.83 71.77 68.03 69.54 69.09 74.24 74.71 74.64 73.35 75.60 71.79 71.55 71.08 69.83 68.54 68.43 68.52 68.88 69.31 69.70 70.52 70.79 70.86
74.08 74.35 74.85 77.77 76.88 77.89 78.36 77.77 77.18 76.07 74.66 74.82 75.83 76.36 75.72 76.64 75.45 75.69 75.44 75.10 73.87 73.52 68.63 71.26 72.05 74.37 74.62 73.82 74.62 73.91 71.84 70.91 67.89 67.11 66.39 65.90 65.58 65.68 65.90 66.17 66.93 67.53 68.69
77.70 76.28 76.79 76.62 77.36 77.37 78.00 78.10 77.49 73.85 71.71 73.67 74.75 75.07 74.64 74.65 76.25 75.83 75.30 75.58 75.13 75.22 72.61 69.58 71.59 73.28 73.81 75.60 75.22 74.29 74.06 71.01 66.95 65.41 64.80 64.17 63.64 63.26 62.72 62.74 62.93 63.72 64.94
77.81 77.73 77.63 77.45 78.00 76.74 77.28 78.16 77.85 75.96 72.52 73.85 74.02 75.97 75.94 75.72 75.18 75.17 74.87 74.34 74.03 73.04 73.88 72.73 71.60 73.63 73.28 74.57 74.37 73.33 71.08 68.47 65.79 64.59 63.27 62.58 62.40 62.40 61.87 61.20 60.44 60.08 61.99
76.89 77.23 77.65 77.74 77.62 77.39 77.36 77.05 77.13 77.37 76.10 76.38 75.57 74.85 74.66 74.91 74.97 76.03 74.83 74.57 73.97 74.15 73.06 70.80 70.54 70.25 70.69 72.00 71.89 69.99 69.20 67.08 64.28 66.01 64.15 62.52 62.07 62.62 62.37 61.37 61.06 59.68 58.20
76.37 76.92 77.44 77.19 76.80 76.95 75.09 77.15 76.63 76.21 76.33 75.84 76.12 75.73 72.16 70.35 68.25 69.04 73.84 75.11 74.22 72.25 71.26 70.08 69.16 68.43 68.21 68.07 68.46 69.68 68.75 67.60 66.61 63.18 60.98 62.23 61.19 61.72 60.38 61.13 61.43 60.51 58.45
77.12 76.95 76.39 76.46 75.95 75.09 66.99 68.87 74.72 75.47 77.24 76.18 75.46 75.62 73.29 68.68 66.46 65.57 65.37 64.69 65.86 72.34 72.37 71.72 70.89 68.84 68.36 68.43 69.40 68.73 68.05 67.19 65.45 67.00 63.37 61.26 58.32 55.67 56.79 57.23 58.96 59.02 58.11
75.20 74.88 75.25 76.01 76.14 72.42 66.30 67.73 67.92 74.91 75.24 75.99 75.65 75.70 74.87 72.79 72.98 70.62 64.77 64.93 64.48 64.90 65.66 70.30 70.51 68.39 68.23 66.52 68.03 68.32 68.37 68.32 66.62 65.99 60.75 57.17 56.71 54.52 56.09 55.83 56.75 56.54 56.19
75.09 74.75 75.00 75.63 75.05 65.24 63.50 65.59 66.48 72.46 75.20 74.58 73.10 70.58 74.22 73.06 68.86 72.22 72.79 67.72 63.53 61.57 62.57 65.80 63.73 61.85 63.23 65.41 66.79 70.69 68.88 66.99 64.23 62.66 61.87 54.92 56.11 53.68 55.25 54.95 55.84 55.41 55.01
72.28 73.63 71.11 72.47 71.80 65.75 61.19 61.83 66.44 74.30 73.49 71.30 69.35 64.48 69.40 69.37 63.01 63.61 69.93 66.32 62.21 60.21 59.83 59.93 59.49 60.02 60.87 62.28 64.23 68.77 66.61 64.67 62.98 60.92 60.35 56.65 54.29 53.13 54.80 54.42 55.06 55.07 54.31
68.34 68.03 65.12 65.75 63.57 64.92 57.45 59.26 63.24 70.85 70.20 70.02 69.35 66.23 58.70 60.90 58.95 61.16 67.97 66.04 60.64 59.92 59.76 58.78 57.98 58.48 59.94 60.62 61.76 63.82 65.40 63.41 61.42 58.94 59.31 55.16 53.10 54.18 51.08 55.37 56.17 56.12 54.50